GFSGL_sfc_wetblb_057.txt.gz
Wetbulb
36.15 36.00 35.58 35.35 35.37 35.27 35.14 35.36 35.57 36.02 37.27 37.43 37.65 37.65 37.52 37.66 38.11 37.62 37.33 37.54 37.16 37.53 38.02 37.43 37.37 37.90 37.82 38.48 38.72 40.03 40.10 39.91 37.43 39.91 40.62 43.09 43.19 45.21 48.16 50.23 52.36 52.49 55.42
35.79 35.23 34.69 34.78 34.93 34.13 34.18 34.82 35.89 36.38 37.19 37.11 37.41 37.26 37.25 37.57 37.94 37.94 37.16 37.87 37.36 37.00 37.61 37.95 37.79 39.59 37.83 37.98 38.09 38.51 39.11 40.11 39.75 38.16 39.62 41.15 42.01 43.53 45.71 46.49 50.74 53.59 54.02
34.83 34.32 34.60 34.58 34.10 33.79 34.36 35.32 36.05 36.19 36.37 36.84 37.01 36.62 37.05 37.84 38.88 39.18 38.43 37.89 37.52 37.41 37.63 37.61 38.47 38.88 37.71 37.45 37.50 37.69 39.08 41.11 40.65 39.96 40.23 42.12 43.61 42.77 43.83 46.09 46.79 48.55 53.02
34.52 34.18 33.50 33.31 33.51 34.13 35.23 35.39 35.80 36.22 35.98 36.39 37.47 38.61 38.89 38.89 39.15 39.04 38.93 38.57 38.56 39.03 38.60 38.85 39.17 39.41 38.40 37.95 37.35 37.66 39.67 39.63 40.36 40.80 41.25 42.09 40.88 41.78 45.80 43.72 46.09 44.81 48.16
33.77 33.37 33.67 34.14 34.16 34.20 34.44 35.33 35.82 36.13 36.54 37.05 38.12 38.56 38.72 38.89 39.38 38.87 39.03 38.94 39.30 39.38 39.81 40.52 41.16 41.78 44.85 43.45 39.44 37.66 38.68 39.89 40.57 40.16 40.95 41.45 40.17 41.35 43.17 42.96 44.30 43.66 44.08
32.39 32.57 33.62 34.49 34.67 34.53 34.74 35.23 35.52 36.80 37.65 37.73 37.59 37.90 37.93 39.09 42.72 44.19 43.67 41.46 41.32 40.91 39.92 40.61 41.55 43.53 43.72 46.14 46.25 46.84 44.35 39.44 38.99 39.96 40.14 40.01 39.68 41.06 43.63 42.89 42.71 44.67 42.58
31.45 32.25 33.09 33.78 33.55 34.25 34.87 35.09 36.64 36.93 37.21 37.24 37.70 38.13 38.12 38.96 43.82 45.49 45.81 43.06 42.19 41.76 41.68 41.43 40.20 41.70 42.89 41.27 43.86 45.80 46.06 46.80 46.28 41.58 41.10 40.81 40.39 43.14 43.99 43.38 42.12 42.64 42.36
31.17 31.33 32.40 33.04 33.45 34.18 34.40 34.98 36.66 37.06 36.60 37.28 37.81 38.32 38.48 39.45 44.58 46.17 47.02 43.97 42.37 42.02 42.23 41.54 39.51 39.27 40.07 40.62 40.31 40.10 39.91 41.05 43.01 43.11 43.54 42.99 43.48 44.83 45.52 45.34 43.16 43.11 43.58
31.23 31.35 32.46 33.49 33.27 33.67 33.99 35.82 36.75 36.95 37.09 37.39 38.35 38.83 39.01 39.62 44.44 46.56 45.77 43.37 41.48 41.31 41.35 40.66 39.15 38.67 42.20 44.22 41.14 40.17 39.78 41.14 45.60 46.24 44.91 47.02 48.45 48.62 47.00 44.32 41.04 40.96 39.47
31.35 32.34 33.36 33.78 33.41 33.61 34.97 36.23 37.20 37.38 38.01 39.36 39.06 39.68 41.57 40.79 43.88 46.01 45.54 43.63 40.93 40.43 40.92 39.77 43.22 40.99 43.59 44.37 40.83 40.66 39.73 40.21 40.94 42.43 44.23 45.70 47.06 46.60 49.73 44.65 43.07 40.55 38.87
32.41 33.12 33.47 33.90 34.01 35.82 36.75 37.05 37.69 38.41 38.45 38.22 38.52 39.39 40.00 41.28 42.25 46.65 46.48 43.74 42.41 40.30 39.67 38.21 38.46 42.90 43.88 44.36 44.59 41.95 41.74 42.06 41.94 40.80 41.52 43.48 43.40 44.61 46.20 44.83 43.83 43.31 39.79
32.49 32.76 33.11 33.67 35.88 36.92 36.76 37.87 38.31 37.94 37.36 37.44 38.05 39.09 41.43 42.26 44.24 44.61 45.98 46.08 45.79 42.06 39.31 38.58 38.04 42.56 43.66 44.25 44.05 45.54 46.06 45.13 39.84 40.36 39.41 39.92 39.64 40.72 43.71 44.90 44.23 43.87 43.50
31.83 31.93 32.64 35.80 36.29 37.37 36.86 37.50 37.18 37.62 37.19 37.66 38.99 38.72 39.68 40.59 41.44 44.66 46.62 47.89 47.34 43.75 41.35 40.44 41.86 43.04 43.75 43.12 44.71 45.39 46.03 44.04 40.95 39.22 39.15 38.71 38.56 39.63 40.78 42.22 43.33 43.53 43.29
30.75 31.49 34.27 35.20 36.62 36.51 37.53 38.27 37.36 36.94 37.33 39.31 38.81 38.92 38.85 39.48 40.27 42.63 43.23 43.30 45.11 43.69 43.71 41.65 41.95 42.05 43.09 42.51 42.08 42.10 43.41 42.76 41.21 39.61 39.30 37.29 37.87 38.31 38.94 40.60 42.19 42.13 41.23
31.18 32.20 34.77 35.88 35.85 36.05 37.45 37.81 37.97 38.97 40.91 39.40 39.64 40.31 38.94 38.24 40.55 43.70 43.67 41.05 40.41 40.99 41.48 39.21 36.30 35.93 35.63 37.95 38.86 39.97 40.85 42.61 40.43 39.29 38.77 37.55 37.92 38.85 39.18 40.58 41.05 43.61 40.44
31.52 33.93 34.43 35.23 35.48 36.46 36.77 36.67 40.61 41.93 42.29 42.67 42.64 42.17 41.41 42.93 43.43 43.38 43.64 43.62 42.55 41.86 37.69 36.03 33.47 36.23 34.05 34.29 34.98 35.72 39.08 40.43 39.73 38.32 37.72 38.05 38.15 38.76 39.33 41.15 40.83 41.23 40.98
33.24 34.45 34.71 35.04 36.00 36.10 35.95 35.66 35.15 38.76 41.36 41.82 42.39 42.72 42.46 41.79 42.06 41.83 41.72 41.50 42.02 40.33 34.13 32.52 32.32 33.15 34.12 34.00 34.25 34.13 34.84 38.19 37.81 38.26 37.93 38.19 39.31 40.43 42.69 42.38 42.30 41.45 41.32
35.00 36.81 34.76 35.52 36.11 36.08 36.05 36.36 36.59 35.85 35.07 36.28 40.19 41.64 41.56 40.82 40.45 40.39 40.28 38.90 35.39 36.25 35.84 36.33 36.79 37.98 36.69 36.77 35.46 34.89 35.21 35.81 36.49 37.63 37.71 38.65 40.04 42.30 42.12 41.95 41.68 42.15 42.61
34.38 33.76 35.37 36.44 36.18 37.15 36.71 36.61 36.50 36.01 35.70 36.01 37.60 39.21 38.88 39.40 38.93 38.68 38.22 34.94 33.86 33.75 34.20 34.63 35.38 36.28 38.04 39.61 39.74 39.95 40.29 39.68 36.65 36.77 37.70 38.82 39.06 40.30 42.01 42.70 42.70 43.17 43.42
33.92 36.21 36.72 36.19 35.79 35.76 36.16 36.03 35.26 35.29 35.40 35.72 35.84 36.21 36.39 35.44 33.58 33.56 34.28 34.03 33.62 33.62 33.86 34.17 35.29 35.95 35.86 36.54 37.79 39.21 40.93 40.15 39.50 38.68 37.53 38.12 39.25 40.03 42.11 42.81 43.22 43.26 42.49
33.27 34.41 36.62 35.03 35.21 35.63 35.81 35.41 35.34 35.17 35.22 35.52 35.83 37.59 37.97 34.11 32.82 32.32 32.39 33.08 32.95 32.99 33.22 33.77 34.72 35.33 35.49 35.71 36.38 36.84 37.49 40.00 41.36 40.60 39.95 40.30 40.71 41.07 42.99 43.48 43.44 43.40 42.87
33.96 34.25 34.80 34.54 35.07 35.43 35.46 35.79 35.40 35.37 35.48 35.42 35.95 35.76 37.09 34.03 32.72 32.07 32.34 33.02 33.45 34.22 34.13 34.65 34.66 34.91 35.06 34.93 35.73 36.57 36.73 36.96 39.37 41.58 41.35 40.38 40.24 41.25 41.71 43.47 43.16 42.94 43.35
33.96 34.05 34.38 34.39 34.98 36.55 34.94 35.19 35.06 35.06 35.37 35.90 35.87 34.75 34.55 33.60 32.92 32.74 32.57 33.15 33.54 33.53 34.14 34.12 33.84 34.08 35.56 35.82 36.47 37.34 37.14 37.27 38.31 40.69 41.84 41.37 41.10 41.20 42.56 43.05 43.31 43.52 43.34
34.06 33.64 34.19 33.82 34.67 34.75 34.28 34.41 34.79 35.90 36.02 35.98 35.10 34.16 34.22 34.37 33.84 33.89 33.79 33.60 33.74 34.01 34.47 34.26 33.94 33.42 33.40 34.69 35.94 37.40 39.49 39.57 39.53 39.94 41.48 41.89 42.29 42.86 43.46 43.42 43.37 43.27 42.81
33.70 33.57 34.25 33.47 33.93 33.70 33.83 34.01 34.26 35.07 35.82 35.74 34.60 34.94 34.28 35.20 34.17 33.39 32.92 32.99 33.32 33.45 34.02 34.41 33.98 33.34 33.85 34.24 36.26 39.26 39.86 38.96 39.19 39.92 41.43 41.93 41.87 42.39 42.27 42.01 42.22 42.33 42.31
33.42 33.52 34.32 33.94 34.04 33.88 33.52 33.32 33.59 34.39 34.58 35.77 35.65 35.33 35.34 34.68 34.20 32.59 32.06 32.13 32.42 33.12 33.87 33.85 33.69 33.75 34.88 37.04 39.11 39.75 39.10 39.07 39.53 40.24 41.56 42.51 42.29 42.46 42.99 42.69 42.19 41.98 41.94

GFSGL_sfc_wetblb_063.txt.gz
Wetbulb
41.33 41.28 41.13 41.13 41.23 41.19 40.49 40.41 40.50 40.53 40.12 39.59 39.70 39.73 39.52 39.56 40.16 40.00 39.96 39.99 39.48 39.79 40.29 39.43 39.09 39.87 40.56 40.87 41.29 40.96 40.31 40.47 38.27 39.94 42.25 43.99 44.56 45.78 47.27 49.15 50.28 50.23 50.43
40.37 40.32 40.24 40.34 40.39 39.56 39.54 39.66 39.58 38.97 39.63 39.25 39.26 38.97 39.05 39.26 39.79 39.47 39.06 39.65 39.20 38.94 39.31 39.45 39.23 40.29 39.73 40.36 40.81 39.71 39.82 40.99 39.97 37.25 40.50 41.63 42.99 45.23 45.94 46.54 47.57 48.36 49.32
39.35 39.27 39.39 39.25 38.92 38.95 38.72 38.87 39.03 38.71 38.81 39.06 38.88 38.48 38.59 39.12 39.31 39.71 39.70 39.54 39.48 39.76 39.93 39.59 39.62 39.84 39.14 39.54 39.47 38.99 39.71 39.76 40.13 39.17 38.54 41.64 42.54 43.94 45.21 46.81 47.46 48.34 49.19
38.53 38.47 38.14 38.45 38.44 38.10 38.29 38.25 38.01 38.30 38.00 38.37 38.77 38.79 38.97 39.15 39.62 40.01 39.75 39.92 40.11 40.31 40.38 40.06 39.77 40.11 40.07 40.28 39.80 39.56 40.06 40.48 40.45 40.13 39.59 40.18 42.32 43.57 45.09 43.33 44.69 47.13 47.53
37.47 37.38 37.62 37.92 37.78 37.50 37.26 37.44 37.78 37.84 38.16 38.54 38.47 38.85 40.01 40.00 40.03 40.21 41.00 41.04 40.75 40.88 41.42 41.17 40.85 41.58 44.56 43.61 40.31 40.19 40.37 40.14 40.28 39.36 38.26 39.32 40.35 41.47 41.21 43.88 44.34 45.13 46.99
36.60 36.34 36.81 36.69 36.70 36.38 36.65 36.79 37.10 37.48 38.06 38.34 38.15 39.18 39.24 40.05 42.89 44.70 44.46 42.77 43.10 42.69 42.31 43.33 43.76 45.74 45.97 47.85 47.95 47.34 41.91 40.32 38.32 37.86 38.40 37.91 39.37 41.38 42.75 43.65 44.13 44.06 42.80
35.86 35.82 35.64 35.88 35.31 35.65 36.19 36.37 36.47 37.05 37.69 37.93 38.55 39.01 38.94 39.95 43.89 46.05 46.45 44.01 43.45 43.44 43.33 43.35 43.62 44.67 45.29 43.08 45.52 46.87 46.79 47.18 45.59 39.77 38.25 38.90 39.20 42.13 42.69 42.21 43.26 44.23 44.89
34.82 34.80 35.15 35.13 34.69 35.56 35.81 35.87 36.60 37.50 37.74 38.16 38.34 38.97 39.31 40.56 45.02 45.93 46.24 43.79 43.06 42.68 42.67 42.88 42.46 42.69 43.67 43.41 42.19 41.42 41.98 42.96 43.42 43.18 42.70 42.25 42.99 43.59 43.83 43.92 44.60 44.52 46.93
34.17 34.18 34.74 34.94 34.50 35.04 35.08 35.77 36.81 36.67 37.55 37.98 38.87 39.40 39.43 39.87 44.11 45.50 44.82 42.97 42.29 42.50 43.06 43.29 43.26 43.41 45.35 46.51 42.79 39.85 39.95 41.40 43.76 45.23 45.50 45.64 45.79 45.72 45.18 44.86 44.18 42.38 40.49
33.88 34.16 34.83 34.93 34.81 34.74 35.35 35.94 36.74 37.16 37.60 38.24 38.69 39.68 41.10 40.76 43.18 45.32 44.34 42.27 41.81 42.15 42.95 43.45 46.37 45.33 46.19 45.74 42.58 41.71 39.80 40.35 41.86 42.43 43.23 45.06 45.92 45.85 47.03 45.06 44.99 41.42 41.37
34.30 34.55 34.64 35.09 35.00 35.68 36.52 37.18 37.42 37.41 37.53 38.06 38.66 39.42 39.92 40.94 42.39 44.20 45.01 42.57 42.01 42.10 43.08 43.53 43.48 45.51 45.41 45.25 44.55 42.83 41.39 42.71 42.50 42.61 42.71 43.53 43.30 45.30 45.85 46.34 46.91 43.55 41.80
34.09 33.99 34.08 34.82 35.33 35.89 36.10 37.01 37.16 36.83 37.08 36.85 37.82 37.86 40.37 40.73 42.53 42.93 44.43 44.38 45.25 42.61 41.87 41.67 41.53 42.74 43.17 43.01 43.42 43.65 44.57 44.59 43.42 42.41 41.51 40.72 40.98 42.16 43.59 46.26 47.06 46.71 46.32
33.64 33.38 33.72 34.70 35.91 36.42 35.58 35.94 36.33 37.15 36.50 36.74 36.69 37.82 38.49 39.85 40.58 42.80 43.35 43.70 44.27 42.38 43.33 42.65 42.05 42.13 42.61 43.11 43.00 43.29 43.65 43.94 43.01 39.73 39.40 40.90 41.76 41.51 45.32 45.77 46.72 46.78 45.90
32.94 32.75 33.70 34.70 35.52 35.40 36.03 36.59 36.58 36.43 36.05 36.57 37.75 37.63 38.20 37.82 39.20 40.76 40.31 40.02 41.39 42.54 43.78 42.45 42.89 42.95 43.08 43.28 42.36 41.23 43.51 43.50 42.23 41.68 41.25 42.81 42.39 43.31 45.03 45.80 44.20 44.35 45.58
32.74 32.77 34.00 34.60 34.49 34.48 35.74 36.86 37.28 38.10 39.36 38.35 38.51 38.88 36.81 36.85 38.54 40.71 40.40 38.97 39.01 41.14 41.52 40.57 40.37 41.09 41.30 41.66 41.50 40.47 41.42 40.39 42.86 42.25 42.50 41.93 42.01 42.05 44.09 45.48 44.83 45.29 44.80
32.20 32.88 33.87 35.46 35.02 35.21 36.12 36.04 40.09 40.82 41.44 41.49 41.92 41.31 39.65 39.99 40.60 40.09 40.30 40.01 40.40 40.94 38.46 37.69 37.31 38.43 39.04 39.41 39.99 39.52 39.39 39.90 41.55 42.79 42.11 42.38 40.31 40.89 42.18 43.05 43.08 43.74 44.49
32.17 32.86 34.60 33.94 34.13 35.29 35.27 34.96 34.11 37.49 40.48 40.39 40.76 40.76 40.60 39.10 38.96 38.64 39.03 38.64 39.19 38.55 34.21 35.00 35.63 37.01 37.85 38.99 38.78 39.33 37.60 38.50 41.40 41.98 42.17 42.36 41.00 41.91 42.86 42.25 42.04 42.27 44.59
33.22 35.55 33.66 34.08 35.30 35.38 35.12 34.96 35.52 35.15 34.45 35.27 39.66 38.99 39.74 38.19 37.90 37.59 37.74 36.46 33.78 34.70 34.33 33.96 34.43 35.59 36.42 37.71 39.18 39.83 39.19 39.70 40.11 41.41 42.33 41.83 42.16 42.83 42.59 42.42 42.24 42.02 42.63
33.39 34.11 34.83 35.51 35.95 36.24 35.60 35.55 35.77 35.62 35.19 36.04 36.28 36.98 38.21 37.95 37.26 37.01 36.64 33.67 32.45 32.38 33.20 33.73 34.58 35.27 35.76 36.43 38.35 39.88 40.29 40.30 40.17 41.03 42.27 42.74 43.21 43.44 42.84 43.03 42.78 42.63 42.64
34.65 35.91 35.84 35.58 35.10 34.71 35.05 35.17 35.10 34.94 35.10 34.77 34.17 34.94 36.74 36.30 33.93 33.73 34.53 34.07 33.20 32.86 32.88 33.13 33.71 35.02 35.58 35.94 36.37 37.85 38.84 41.16 41.20 41.28 41.89 43.16 43.85 43.51 43.26 43.09 42.98 42.56 42.38
35.45 33.89 35.67 34.40 34.79 34.33 34.97 34.84 34.82 34.75 34.56 34.59 34.78 35.81 37.74 34.89 34.43 33.57 32.97 33.04 32.95 33.43 33.24 33.18 33.38 34.43 34.96 35.61 35.77 36.20 37.38 38.89 41.58 41.34 41.76 41.71 43.52 42.31 44.19 43.86 43.38 43.88 43.30
33.83 33.34 33.43 34.19 34.62 34.52 34.61 34.99 34.60 34.67 34.75 34.85 35.28 35.49 37.04 35.11 34.07 34.01 33.30 33.20 33.32 33.63 34.09 34.07 33.35 34.04 34.55 34.83 35.27 35.40 35.85 37.19 39.43 40.99 41.17 42.01 43.05 42.84 43.05 44.12 43.58 43.71 43.36
33.63 32.84 33.44 34.27 34.34 35.66 34.15 33.98 34.11 34.14 34.71 35.24 34.38 35.15 35.21 35.08 33.85 33.08 32.90 33.14 33.31 33.38 33.96 33.78 33.60 34.13 34.47 34.53 34.94 35.87 35.60 36.37 38.59 40.64 41.11 40.31 40.78 41.32 41.52 42.61 43.35 43.58 44.11
34.04 32.74 33.12 33.76 34.29 33.75 33.33 33.09 33.58 34.62 34.71 35.00 34.66 35.13 33.97 33.75 32.88 32.87 33.18 33.32 33.35 33.46 33.65 33.55 33.42 33.56 33.80 34.72 35.27 36.10 36.80 37.73 39.05 39.77 41.09 41.00 40.62 41.08 41.18 41.67 43.55 43.41 44.53
33.37 32.95 33.14 33.99 34.11 32.89 32.77 32.74 32.92 33.58 34.01 34.21 34.26 33.99 33.41 32.98 32.65 32.90 33.20 33.30 33.29 33.04 33.27 33.32 33.11 33.26 33.70 34.29 34.76 35.62 36.64 37.08 38.84 39.77 40.77 42.90 42.29 41.82 42.55 42.04 42.45 44.30 44.38
33.22 33.14 33.60 34.31 33.48 33.95 33.42 32.35 32.29 32.76 32.90 32.92 34.40 33.18 33.34 32.83 32.90 32.75 32.84 32.82 32.66 32.73 32.87 33.09 33.00 32.74 34.73 36.38 36.86 36.86 36.86 37.43 38.43 39.33 40.86 43.09 42.26 41.72 42.49 42.06 42.45 44.12 44.52

GFSGL_sfc_wetblb_069.txt.gz
Wetbulb
48.48 48.75 48.46 48.33 48.28 48.06 47.46 47.16 46.76 46.30 45.26 44.47 44.18 44.18 43.58 43.40 43.39 43.61 43.60 44.09 43.86 43.82 43.36 42.64 42.39 42.75 41.62 41.55 41.51 40.97 39.81 39.44 36.31 39.28 41.80 43.42 43.89 44.46 46.30 47.67 48.33 47.99 48.89
48.04 47.36 47.27 47.64 47.61 46.98 46.65 46.36 45.66 44.31 44.41 43.64 43.24 42.69 42.45 42.95 43.20 43.06 42.83 43.39 42.91 41.74 41.72 41.88 41.78 42.22 41.36 42.30 42.18 41.18 40.95 41.47 39.20 36.87 39.87 40.68 41.36 43.56 44.39 45.09 46.51 47.49 47.96
47.27 46.81 46.74 46.68 46.51 46.00 45.32 44.62 44.08 43.41 42.87 42.79 42.52 42.10 42.21 42.86 42.87 43.30 43.19 42.61 41.98 42.33 42.14 41.50 41.50 41.34 41.22 42.05 42.09 41.24 41.45 41.66 41.36 39.69 38.70 41.24 41.43 41.99 41.80 43.31 44.47 45.88 47.22
46.36 45.87 45.58 45.70 45.59 44.64 43.79 43.27 42.84 42.61 41.92 41.91 42.19 42.25 42.90 43.05 43.07 42.12 42.03 41.62 42.01 42.55 42.75 42.58 42.29 42.10 41.13 40.97 41.26 41.65 41.43 40.34 40.16 39.34 38.82 39.16 40.41 41.88 41.44 39.82 40.86 44.07 44.93
45.20 45.11 45.11 45.14 44.15 43.19 42.54 42.34 42.12 41.76 41.86 42.08 41.98 42.49 42.73 42.28 41.92 41.86 42.22 42.11 42.07 42.56 43.53 43.28 43.40 44.57 46.85 45.90 42.58 41.51 41.11 40.24 39.66 39.08 38.52 38.75 39.58 39.73 39.22 40.58 40.40 42.52 44.37
44.88 44.49 44.44 43.01 42.27 41.71 41.57 41.18 41.08 41.11 41.39 41.68 41.72 41.09 39.73 40.69 43.19 44.28 43.79 42.35 42.93 43.03 43.00 44.09 44.36 45.85 46.36 48.14 48.61 48.73 46.96 41.19 39.55 38.88 38.39 38.32 39.96 40.99 41.55 40.52 41.23 41.19 39.82
43.88 43.07 42.24 42.02 41.10 40.87 40.84 40.43 40.55 40.46 40.97 41.01 40.65 39.68 39.42 40.38 43.77 45.02 45.47 43.40 43.37 43.10 43.72 43.71 43.92 44.96 45.76 44.42 46.36 47.68 47.62 48.47 48.59 41.97 39.40 39.80 40.32 42.29 42.04 40.72 40.98 41.07 40.85
42.25 41.74 42.03 41.17 40.24 40.20 39.94 39.54 39.75 40.16 40.28 39.53 39.27 39.58 39.72 40.60 43.85 44.96 45.64 43.34 43.47 43.52 43.55 43.57 43.29 43.48 44.19 43.99 43.59 43.19 43.34 43.67 43.93 45.18 44.01 42.27 42.80 43.98 43.26 42.60 42.73 42.15 43.45
41.29 41.41 40.95 40.28 39.47 39.38 38.83 38.91 39.39 39.46 37.99 38.12 39.07 38.77 38.84 40.03 43.48 44.62 43.97 42.67 42.54 42.50 42.61 43.67 42.70 42.38 45.56 46.89 44.04 44.43 43.64 43.28 46.15 47.67 47.76 47.34 47.15 46.28 44.67 42.41 40.69 40.75 39.88
41.37 40.53 40.44 40.19 39.53 38.76 38.92 38.90 39.73 38.45 37.29 38.25 38.13 39.10 40.61 39.67 42.59 44.04 43.81 42.34 41.64 41.04 41.34 42.02 42.63 43.32 46.14 46.48 44.01 44.34 43.43 42.66 42.76 42.82 43.80 45.10 46.04 45.50 46.81 44.44 42.85 40.44 40.90
41.48 40.66 40.12 40.26 39.55 39.21 39.03 39.74 38.99 37.30 37.24 37.71 38.26 39.16 39.51 40.38 41.38 43.83 44.34 41.70 40.70 40.11 40.31 40.36 40.38 43.31 45.87 45.27 45.24 43.91 42.56 43.19 42.93 42.41 42.08 43.02 43.63 43.94 44.41 45.10 44.62 43.24 41.29
40.80 39.84 39.85 40.07 39.37 39.15 39.13 39.07 37.60 37.01 37.88 37.22 37.19 37.68 39.04 40.17 42.21 42.69 43.67 42.95 42.43 39.49 39.82 40.13 40.44 43.32 45.50 44.88 44.52 44.16 43.92 44.58 44.00 42.82 42.33 41.54 41.82 42.07 43.16 44.21 44.87 45.33 45.59
39.87 39.43 39.55 39.31 38.95 39.25 38.16 37.06 37.15 37.98 36.97 36.59 36.69 36.86 38.38 40.11 39.23 42.28 41.99 42.04 41.79 39.44 40.01 40.96 42.30 43.99 44.76 44.71 44.01 43.73 43.90 44.33 42.98 41.92 41.64 41.80 42.71 44.09 44.47 44.46 44.98 46.12 46.12
39.09 39.03 38.89 38.11 38.19 38.40 37.39 37.17 37.84 36.89 36.28 36.54 36.89 37.12 37.06 38.69 38.98 39.26 39.57 39.73 40.37 39.65 40.27 38.94 40.88 43.19 44.17 44.31 43.75 43.60 42.90 43.00 42.08 41.75 41.31 43.07 44.32 43.21 41.91 43.08 42.14 43.59 43.57
38.79 38.61 38.12 37.89 37.17 36.08 36.00 37.03 37.68 38.24 38.67 37.80 38.05 38.01 36.85 37.49 38.50 40.23 39.23 38.36 38.54 38.35 38.76 36.86 36.88 39.70 40.07 40.78 41.46 41.80 41.94 40.17 40.67 41.34 42.70 42.57 42.47 42.74 41.31 42.37 42.20 43.43 42.12
37.66 38.04 37.42 37.03 35.50 35.11 36.00 36.84 39.14 39.88 40.78 40.99 41.07 39.95 39.45 40.28 41.00 41.47 40.06 39.61 39.20 38.89 35.85 33.59 33.35 35.26 36.61 38.10 38.65 40.03 40.93 39.48 39.77 41.73 43.22 42.55 41.88 39.72 41.22 43.32 43.13 42.12 41.64
37.63 37.51 37.10 36.14 35.26 35.85 36.07 35.22 33.75 37.01 40.26 40.43 40.53 40.79 40.39 40.28 40.63 40.10 39.94 39.49 38.42 37.63 33.80 32.79 32.81 33.97 34.92 35.82 37.96 39.44 38.80 39.01 40.70 41.87 42.63 42.88 42.71 42.88 42.75 41.53 41.18 40.68 40.68
38.52 38.11 36.60 35.03 36.00 36.23 36.09 35.65 35.21 34.39 34.12 35.58 39.20 39.74 40.58 40.59 40.55 39.99 38.63 37.65 34.71 35.23 34.13 32.72 32.43 32.96 34.14 35.16 36.40 37.58 39.46 39.76 41.00 42.21 43.16 42.69 42.46 42.31 42.60 41.19 41.50 44.00 44.34
37.64 37.23 36.78 36.01 36.61 36.45 36.48 35.91 35.46 34.81 34.69 35.10 36.68 37.80 39.39 39.61 39.27 39.04 37.95 34.61 33.55 33.46 33.69 33.15 33.08 33.32 33.42 34.85 36.05 36.99 38.31 39.68 40.87 42.91 42.33 42.43 43.20 43.80 42.54 42.97 42.48 44.49 44.87
37.83 36.92 36.44 35.47 35.68 35.81 36.13 34.56 34.38 33.91 34.21 34.48 34.71 34.96 36.62 37.07 34.54 34.56 34.90 34.42 33.94 33.67 33.72 33.20 33.39 33.40 33.75 34.31 35.04 36.18 36.81 38.93 39.91 42.57 43.17 44.06 44.35 44.20 43.25 43.20 43.01 42.64 43.37
36.48 36.17 36.18 34.36 35.19 35.71 35.47 34.15 33.80 33.63 33.38 34.14 34.80 36.38 37.29 34.94 34.37 33.61 33.82 34.12 34.21 33.89 33.78 33.63 33.62 33.62 33.69 34.22 34.74 35.13 36.15 37.46 39.28 40.22 42.93 42.99 43.95 43.32 44.09 43.68 43.55 43.30 43.06
36.82 36.63 34.99 34.34 35.46 35.28 35.63 35.00 33.97 33.38 33.75 33.44 33.72 34.91 36.59 34.70 34.19 33.77 33.89 34.09 33.96 33.97 34.20 33.89 33.57 34.00 34.05 33.91 34.14 34.14 34.81 36.26 37.59 39.70 41.35 43.40 42.63 44.12 44.43 43.94 43.69 43.27 42.94
36.27 34.90 33.46 34.08 35.49 35.53 34.19 34.78 34.33 33.96 33.70 33.70 34.50 33.85 34.26 34.23 33.82 33.90 34.14 34.12 33.93 33.64 34.01 33.91 33.85 33.57 34.11 34.59 35.11 35.28 34.88 35.46 37.73 39.60 40.23 41.59 42.36 42.32 43.30 43.65 43.18 42.74 42.76
35.77 34.35 33.21 34.35 34.95 34.33 33.96 33.21 34.09 33.81 33.41 33.88 33.41 33.97 34.19 34.29 34.12 34.29 34.26 34.10 33.95 33.80 33.66 33.35 33.66 33.40 33.70 34.12 34.99 35.54 35.57 36.31 38.87 39.18 40.63 42.09 41.65 42.25 43.04 43.16 43.72 43.55 43.48
35.47 33.96 33.77 34.38 34.14 33.39 33.44 32.88 33.74 33.54 33.48 33.36 33.29 33.67 34.01 34.24 34.25 34.16 33.98 33.82 33.65 33.26 33.12 33.04 33.40 33.80 34.43 34.72 34.39 34.22 35.33 36.30 37.19 39.21 41.06 42.92 41.55 41.71 42.48 42.38 43.99 44.11 44.07
35.01 34.38 33.47 34.62 34.44 33.41 33.22 32.27 32.52 33.69 33.11 33.40 33.87 33.88 33.95 33.84 33.98 33.87 33.72 33.54 33.38 33.06 32.76 32.82 32.81 32.95 34.36 34.84 35.52 35.94 35.59 36.13 36.40 37.50 40.28 42.96 41.21 40.88 42.10 42.31 42.76 44.12 44.11

GFSGL_sfc_wetblb_072.txt.gz
Wetbulb
44.03 43.60 42.79 42.71 42.87 42.47 41.95 42.09 41.90 41.46 40.80 40.10 39.98 39.49 38.96 38.39 38.26 37.59 37.49 38.32 38.67 38.85 39.30 40.68 41.44 41.85 41.01 41.13 41.12 40.68 39.61 39.07 35.71 36.99 37.78 39.12 38.83 39.43 41.17 42.05 43.51 43.56 43.68
43.47 42.42 42.10 42.41 42.28 41.25 41.06 40.96 40.87 39.31 39.51 39.29 38.95 38.52 38.40 38.41 37.89 37.49 37.81 38.97 38.84 38.76 40.62 40.77 40.57 41.88 40.79 40.89 39.83 38.27 38.21 38.52 36.87 34.75 37.31 38.01 38.17 39.39 39.78 39.53 41.84 43.98 43.56
42.73 41.44 41.39 41.21 41.00 40.40 39.80 39.51 39.01 38.40 38.00 38.07 38.39 37.76 38.32 38.83 39.19 39.58 39.65 40.00 40.90 40.66 40.70 40.45 40.67 40.67 39.83 40.15 40.08 39.93 40.27 39.99 38.82 37.80 37.31 39.20 39.50 40.00 39.23 39.19 39.44 39.96 42.88
42.09 40.76 40.12 40.32 40.07 39.11 38.84 38.42 38.38 38.47 37.91 37.53 37.82 38.71 39.12 39.72 39.32 39.31 39.44 40.04 40.50 40.97 41.41 41.54 41.40 41.03 40.18 40.37 40.65 39.75 39.65 39.78 39.88 38.76 38.38 38.90 39.76 39.68 38.90 37.84 37.14 38.71 39.52
40.72 40.23 39.96 39.88 39.08 38.30 37.87 38.00 37.97 37.67 37.88 38.02 38.55 38.84 38.89 38.33 39.53 39.37 40.15 40.31 40.67 40.96 41.70 42.00 42.54 43.75 46.94 46.48 44.18 42.47 40.99 39.90 39.47 38.87 37.89 38.32 38.31 38.34 37.11 38.52 37.41 38.01 38.40
39.72 39.49 39.85 38.72 38.20 37.67 37.48 37.14 36.48 36.26 36.33 37.58 37.39 37.64 36.44 39.15 43.00 43.71 43.05 41.30 41.79 41.86 41.80 43.00 42.35 44.90 45.30 47.38 47.83 48.18 46.78 43.27 39.71 39.01 38.77 37.95 38.47 39.04 39.52 38.59 37.47 36.13 35.29
39.10 38.73 38.11 38.07 37.53 37.12 36.79 36.28 35.32 35.04 35.19 35.72 35.27 36.22 36.91 38.92 43.40 44.61 45.03 42.30 42.38 42.21 42.31 42.33 41.44 43.37 44.23 42.27 45.14 46.83 46.49 47.42 47.32 44.07 40.46 39.68 39.67 40.73 40.73 39.68 38.59 37.27 37.21
37.76 37.26 37.65 37.08 36.27 36.20 35.62 35.02 34.48 34.87 34.91 33.99 35.36 37.45 37.76 38.56 42.89 43.96 44.90 42.35 42.03 41.64 42.08 41.52 41.58 40.91 41.87 41.87 41.17 41.90 43.19 43.53 43.72 44.25 43.28 43.38 42.23 42.93 42.48 42.35 41.13 39.25 39.06
37.02 36.53 36.69 36.40 35.51 35.47 34.94 33.95 34.07 34.87 33.78 36.46 37.06 36.97 37.04 37.87 42.72 44.10 43.37 41.40 40.82 41.16 41.73 40.72 40.92 40.24 43.54 44.77 42.13 41.64 42.11 42.80 47.02 49.23 48.89 47.23 47.40 46.71 45.35 43.30 40.74 39.28 38.23
36.89 37.03 36.89 36.41 35.72 35.38 34.31 33.50 34.52 34.12 35.41 37.03 36.64 37.60 39.72 38.24 42.05 43.63 43.29 41.76 39.88 40.38 39.89 40.17 42.56 41.98 44.20 44.49 42.03 42.01 40.40 41.66 43.86 44.19 44.93 45.68 46.48 46.96 48.17 44.25 41.13 38.53 38.41
38.08 37.63 36.89 36.38 35.79 35.19 33.81 34.44 33.79 34.71 36.32 36.11 37.28 37.89 37.97 39.04 40.19 43.41 44.00 40.67 40.02 38.29 38.26 38.73 39.52 42.63 43.26 44.47 45.22 42.33 41.83 43.44 43.13 42.51 41.95 41.80 40.49 40.50 42.56 45.19 42.63 40.79 38.29
37.56 36.92 36.10 35.71 36.41 37.32 33.12 33.17 33.78 35.27 35.89 36.26 36.36 36.60 38.18 39.58 41.69 42.56 43.03 42.57 41.89 37.48 37.30 38.07 38.50 42.13 42.94 43.64 45.03 45.34 45.40 44.49 42.46 39.36 38.94 37.88 37.96 38.17 41.18 42.24 43.55 42.97 42.94
36.21 35.15 35.06 35.54 35.54 34.36 32.64 32.80 33.71 35.21 35.90 35.74 35.34 36.36 37.77 38.88 38.55 42.23 42.40 42.59 41.40 38.42 37.88 39.23 41.27 40.90 42.83 43.54 44.61 44.48 43.69 40.92 40.02 40.18 38.02 37.57 37.81 38.96 39.13 39.68 42.01 43.34 43.60
34.88 34.30 34.60 34.22 34.73 32.73 33.83 34.45 34.24 35.52 35.98 35.45 36.07 36.48 37.21 36.90 37.95 38.30 39.20 38.74 39.53 38.96 39.26 37.71 38.18 39.92 41.95 42.81 42.86 42.48 41.71 39.04 38.41 38.38 37.33 40.27 41.11 39.64 39.43 40.37 39.81 41.52 39.71
34.51 34.28 34.64 34.34 32.52 31.41 33.38 34.38 36.41 37.68 37.66 36.71 37.24 37.63 36.67 36.41 37.23 40.60 40.09 38.05 37.97 38.62 38.91 34.58 34.66 35.30 36.06 37.71 38.96 40.06 41.21 39.59 38.50 39.39 40.80 41.10 41.90 41.52 41.40 42.12 41.81 41.23 39.54
34.07 34.50 34.37 33.21 31.57 32.76 33.53 35.11 38.97 39.19 39.73 40.21 40.77 39.69 39.23 41.01 41.95 41.89 41.47 41.14 39.62 39.36 35.38 32.57 32.49 33.31 33.77 34.95 35.53 37.21 39.51 39.26 39.40 40.19 41.41 42.25 41.52 40.87 39.84 40.16 40.21 39.84 39.23
33.57 34.38 33.60 33.79 32.19 32.75 34.01 34.37 33.75 35.72 38.93 39.27 40.14 40.78 40.83 40.46 41.04 41.21 40.28 39.60 38.10 37.37 32.89 32.39 32.04 32.44 32.76 33.98 35.24 35.24 36.03 38.76 40.27 41.30 41.57 42.13 42.25 42.04 42.36 41.71 41.62 41.77 41.18
34.96 38.79 32.73 32.60 33.11 33.40 34.09 34.67 35.02 33.32 33.16 33.63 38.03 38.84 39.33 39.98 40.42 38.78 38.67 36.83 32.89 33.79 33.20 32.65 31.96 32.25 32.68 32.88 34.15 35.33 36.56 37.35 39.05 40.48 41.21 40.92 41.25 42.15 40.78 39.21 39.17 39.15 39.70
35.31 33.29 33.09 34.00 33.40 34.35 34.45 35.35 33.88 33.63 33.37 33.40 34.60 36.38 37.18 38.59 38.66 37.92 37.23 33.54 32.46 32.05 32.55 32.72 33.06 32.80 32.60 33.15 33.79 34.91 35.49 36.63 38.26 40.44 41.52 41.85 42.68 42.96 42.24 42.25 43.31 44.53 43.65
34.63 36.99 36.07 33.46 32.85 33.21 34.58 34.08 33.48 33.03 32.70 33.00 32.42 34.10 34.05 35.65 32.65 32.76 33.79 33.65 33.28 33.03 32.71 31.59 32.66 33.17 33.18 33.23 33.66 34.29 34.62 36.23 37.75 39.67 41.67 42.61 43.26 42.60 41.54 41.24 41.64 42.67 43.61
33.87 33.64 36.36 32.31 32.59 33.58 34.32 34.32 33.01 32.77 32.27 32.46 32.90 33.98 37.50 33.78 32.54 33.06 33.06 33.31 33.20 32.95 32.74 32.79 32.93 33.37 33.53 33.36 33.42 33.66 33.64 35.19 36.91 38.51 40.35 42.08 41.90 40.42 40.52 42.30 40.89 40.79 41.82
33.90 33.08 32.55 32.84 33.14 34.11 34.38 33.58 33.08 32.77 32.47 31.98 32.47 33.15 35.98 33.28 33.38 33.24 33.40 33.60 33.82 33.89 33.81 33.24 33.22 33.60 34.03 33.52 33.43 33.29 33.44 33.81 35.87 38.21 39.45 41.07 41.63 42.54 41.15 41.09 40.78 40.62 41.80
33.03 32.57 32.08 32.70 33.50 35.12 33.03 33.40 32.62 32.64 32.32 32.08 32.19 32.42 33.04 33.00 33.21 33.31 33.47 33.77 33.78 33.47 33.77 33.44 33.23 33.25 33.87 34.24 34.49 34.51 33.73 34.12 36.14 38.58 37.33 40.34 41.25 42.29 41.31 40.41 40.51 39.92 40.00
32.82 32.30 32.50 32.22 33.49 33.42 32.37 32.51 32.29 32.56 32.58 32.35 32.60 33.00 32.78 33.19 33.27 33.54 33.83 33.95 33.72 33.73 33.78 33.05 33.08 33.74 33.85 33.85 34.53 35.06 35.23 35.74 35.97 38.37 39.37 40.36 41.15 41.71 42.29 40.64 40.47 40.84 40.68
32.38 32.31 32.45 32.55 32.95 32.96 32.37 32.26 31.70 31.82 31.54 32.17 32.85 32.85 33.00 33.52 33.63 33.68 33.67 33.77 33.53 33.29 32.99 32.75 32.95 33.45 33.67 34.06 33.90 34.44 35.27 36.07 36.17 38.37 39.65 40.59 41.07 41.12 42.07 40.10 43.12 41.45 41.57
32.19 31.79 32.58 32.70 32.41 32.58 32.27 31.80 31.57 31.68 31.26 32.28 32.72 33.21 33.17 33.20 33.53 33.43 33.33 33.11 32.96 32.75 32.76 32.77 32.68 32.98 34.31 34.66 34.63 34.91 35.27 35.97 36.18 36.89 39.24 39.59 40.73 40.47 41.46 41.46 42.89 41.23 41.54

GFSGL_sfc_wetblb_075.txt.gz
Wetbulb
42.01 41.01 40.42 40.26 40.42 39.98 39.50 39.35 39.04 38.55 37.95 37.83 37.97 37.55 37.10 36.62 36.34 35.30 34.88 35.27 35.04 35.68 36.21 36.37 37.11 38.10 40.84 41.05 41.04 40.72 39.75 39.14 35.84 37.39 36.71 37.04 36.02 37.16 39.73 40.73 41.58 39.53 40.96
41.44 40.51 39.80 39.64 39.42 38.67 38.33 37.97 37.80 36.93 37.21 37.12 37.06 36.70 36.55 36.79 36.39 35.50 35.29 36.42 35.83 36.89 36.53 39.16 39.80 41.06 40.41 40.80 40.49 39.83 39.47 39.36 37.60 34.76 37.05 37.13 36.27 38.36 39.15 38.62 40.81 42.74 41.07
40.14 39.33 38.99 38.94 38.51 37.57 36.88 36.83 36.78 36.30 36.17 36.25 36.48 35.86 36.58 37.37 37.42 36.67 37.04 36.83 36.83 37.94 39.58 39.57 39.66 39.99 39.51 40.23 39.92 38.61 38.75 39.59 38.54 36.71 36.34 38.21 38.53 38.75 38.28 38.75 38.87 39.34 41.19
39.40 38.26 37.85 37.56 37.26 36.51 36.33 36.18 36.09 36.02 35.27 35.25 35.40 36.20 37.05 37.82 37.26 37.23 36.71 35.94 36.55 38.90 40.33 40.94 40.87 40.57 39.86 39.25 39.32 39.50 39.53 38.90 39.12 38.47 38.28 37.94 38.48 39.80 39.96 38.11 37.26 37.87 38.23
38.41 37.79 37.40 37.37 36.50 36.03 35.71 35.58 35.49 35.25 35.54 35.08 35.59 36.29 35.64 36.77 38.51 38.05 38.82 39.53 39.80 39.89 40.51 41.03 41.66 43.07 45.94 45.74 43.70 42.52 42.20 40.01 39.47 39.06 37.99 38.60 38.66 38.03 37.07 38.81 37.25 38.01 38.15
37.04 37.30 37.52 36.79 36.09 35.32 35.04 34.90 34.39 34.03 33.80 34.31 34.01 34.52 34.24 37.34 41.94 43.18 42.19 40.72 41.28 41.15 41.38 42.45 43.19 43.99 44.41 46.86 46.99 47.39 45.38 42.19 41.07 40.01 39.04 38.20 38.86 39.27 39.57 38.18 37.41 35.90 34.34
36.96 36.52 36.28 35.73 35.29 34.89 34.78 34.28 33.72 32.93 32.50 32.31 32.63 33.42 33.35 36.50 42.17 43.48 44.05 41.25 41.34 41.65 41.54 41.55 41.78 42.34 43.52 42.19 43.78 45.58 45.23 45.71 45.37 42.37 40.76 39.87 39.36 40.63 40.63 39.63 39.28 38.41 37.35
36.06 35.43 35.11 34.99 34.59 34.46 33.83 33.37 32.56 32.18 31.91 31.48 32.59 33.52 36.67 37.53 42.24 43.55 44.36 41.65 41.06 41.16 40.70 40.97 40.74 40.27 40.71 40.87 40.64 40.87 40.78 41.14 42.49 43.28 43.20 43.05 43.58 42.54 42.60 42.04 41.14 40.50 40.90
35.59 34.26 34.96 34.83 33.99 33.81 33.15 32.67 32.26 31.08 30.90 32.08 33.41 35.59 36.19 36.42 42.20 43.28 42.81 41.07 40.56 40.91 40.72 40.91 40.13 39.56 42.87 44.31 40.79 40.20 39.22 40.55 44.47 47.10 47.66 48.10 48.93 48.19 45.57 42.61 40.54 39.44 38.13
35.31 35.44 35.36 34.95 34.27 33.48 33.00 32.14 30.99 31.75 32.75 34.29 34.60 36.90 39.30 37.32 41.12 42.93 42.73 41.10 37.78 39.73 39.43 39.60 41.81 40.75 43.30 43.50 39.78 39.30 38.97 39.45 40.90 41.88 43.53 45.06 46.01 48.34 48.46 43.72 41.89 39.55 39.15
36.38 36.19 35.72 35.04 34.09 33.67 32.41 30.45 31.56 31.52 32.29 32.36 35.24 36.56 36.99 37.98 39.10 43.00 43.24 40.49 39.19 38.28 37.70 36.81 38.10 41.26 42.26 43.08 43.17 39.76 40.11 41.95 42.75 41.73 41.44 41.95 42.29 41.77 42.66 46.18 43.87 41.84 39.93
36.09 35.49 34.62 34.03 34.83 36.02 30.46 30.93 30.98 30.76 31.61 33.39 35.34 35.42 36.43 38.55 41.56 41.93 42.99 42.80 42.15 39.06 36.81 37.18 37.50 41.30 41.70 41.98 42.44 44.13 45.54 43.91 40.72 39.16 38.18 38.17 37.99 37.86 38.46 40.04 42.92 43.34 43.32
34.57 33.67 33.31 33.51 33.79 31.95 30.80 30.26 30.99 32.00 32.73 34.43 34.19 34.82 36.85 38.88 38.59 41.34 42.40 42.61 42.66 39.30 38.31 39.47 41.31 40.22 40.11 40.50 44.32 44.57 43.06 38.96 37.01 36.14 36.59 36.90 36.61 38.00 37.46 38.72 40.61 42.01 42.01
33.38 32.80 32.60 32.51 33.91 30.86 31.58 32.12 32.10 33.27 35.47 35.07 35.27 35.48 36.61 37.55 37.30 38.06 38.41 40.03 41.04 39.69 39.23 38.51 37.61 37.24 38.10 39.37 39.60 40.71 41.74 40.31 37.87 37.94 37.85 36.41 38.16 41.14 39.69 38.09 38.54 39.69 40.04
32.98 32.75 32.63 33.16 31.03 29.91 31.15 31.99 34.57 37.07 37.91 35.84 36.32 36.52 36.35 35.99 38.57 40.74 40.24 39.01 38.69 38.66 38.36 34.98 31.45 33.05 33.70 33.95 35.05 36.47 38.91 39.68 37.81 39.26 39.00 39.61 40.73 41.19 39.00 39.83 40.64 40.62 38.46
33.06 32.72 32.47 32.60 30.30 30.59 31.44 32.80 38.03 38.91 39.09 39.28 39.54 38.43 38.34 40.71 41.33 41.33 40.96 40.15 38.93 38.68 35.16 30.94 31.52 32.27 32.21 32.73 32.36 33.31 34.84 36.65 37.07 39.11 40.32 41.09 41.38 41.13 40.79 41.16 41.35 40.53 39.57
32.38 32.89 32.66 31.95 31.42 31.45 32.10 32.90 33.07 35.33 37.67 37.71 38.55 39.20 39.66 39.36 39.69 39.89 39.32 38.80 37.47 36.86 32.05 30.60 30.65 31.97 31.75 32.33 32.81 33.83 34.24 35.34 37.75 38.11 39.34 40.91 42.04 41.49 40.76 40.52 39.73 39.93 39.01
33.66 37.69 31.10 31.23 30.93 31.40 32.20 33.43 34.49 32.93 31.88 32.11 36.19 37.19 38.38 38.61 39.25 38.08 37.87 36.67 32.53 33.61 32.38 31.29 30.58 32.27 32.11 31.97 32.58 33.06 34.25 35.44 36.08 37.40 38.89 41.19 41.58 41.79 40.31 37.83 38.04 40.11 39.61
34.06 32.30 32.09 32.48 34.05 33.37 32.84 34.49 34.01 33.15 32.70 31.85 32.94 34.99 35.87 37.52 38.61 37.30 37.01 33.31 32.25 32.08 32.64 31.95 31.29 31.29 32.51 32.56 32.74 33.59 33.92 34.18 36.30 37.46 40.25 41.76 42.28 42.43 41.68 42.28 41.65 40.31 41.10
33.22 37.05 36.21 33.36 31.61 31.96 33.02 33.64 32.98 32.03 32.61 31.70 31.75 32.24 33.63 35.87 31.95 32.28 33.46 33.65 33.04 32.83 32.98 32.78 32.74 32.80 32.83 33.05 33.05 33.13 33.39 33.59 35.22 36.89 38.34 40.70 42.69 42.30 41.83 42.22 42.15 42.73 39.87
32.51 32.57 34.92 30.77 31.36 32.04 33.75 32.73 32.44 32.07 31.68 31.61 31.62 33.27 36.93 33.15 31.91 32.50 32.77 33.07 33.02 32.84 32.77 32.76 33.05 33.24 33.54 33.30 33.20 32.90 32.98 33.17 34.53 36.24 38.00 39.97 41.15 40.27 41.76 41.84 41.70 43.37 44.19
32.20 31.40 30.97 31.86 31.97 32.67 34.14 32.32 32.31 31.73 31.62 31.76 32.19 32.96 35.64 32.87 32.90 32.86 33.03 33.35 33.75 33.82 33.66 33.08 32.82 33.41 33.85 33.65 33.49 33.03 32.75 32.86 33.94 35.98 37.81 39.37 41.08 41.00 40.77 40.28 39.61 41.39 43.00
31.34 30.98 31.50 32.31 32.21 34.75 32.59 32.12 31.73 31.23 31.10 31.30 32.02 32.72 32.60 32.50 32.86 33.01 33.29 33.68 33.65 33.40 33.81 33.49 33.12 33.29 33.85 34.13 34.63 34.20 33.19 33.49 34.53 36.46 36.15 37.69 40.80 40.42 39.74 39.52 38.91 39.97 40.60
31.16 30.25 32.19 31.96 32.76 32.24 32.13 32.17 31.36 31.81 31.57 31.45 32.11 32.24 32.62 32.61 32.87 33.23 33.18 33.64 33.13 33.31 33.45 33.07 33.07 33.24 33.53 33.49 34.32 34.81 34.86 35.28 35.64 35.11 36.45 38.41 40.31 41.26 40.42 39.00 39.30 40.77 43.09
30.62 29.68 30.65 31.85 31.22 31.39 31.34 31.04 30.96 31.22 31.23 31.66 31.95 32.26 32.65 33.05 32.85 33.31 33.37 33.54 33.22 32.85 32.78 32.85 32.95 33.25 33.97 34.36 33.69 34.42 35.19 35.76 35.64 35.97 38.07 39.46 40.31 40.98 41.63 39.70 40.35 40.55 42.42
30.26 29.54 31.42 31.52 31.01 31.62 31.14 31.12 31.15 31.56 31.63 31.71 32.19 32.70 32.70 32.57 32.63 32.56 32.94 32.87 32.61 32.69 32.53 32.82 32.72 32.81 34.15 34.66 34.60 34.81 35.05 35.55 35.16 36.43 37.28 39.45 40.02 40.37 41.31 41.52 40.37 40.01 41.60

GFSGL_sfc_wetblb_081.txt.gz
Wetbulb
38.91 37.86 37.23 37.14 37.32 37.11 37.15 36.71 36.24 35.66 35.39 35.47 35.52 35.10 34.76 34.38 34.05 32.81 32.39 32.65 32.33 32.44 32.54 32.40 33.16 33.82 34.22 34.82 35.65 36.17 36.11 36.31 34.32 36.85 35.98 36.14 34.78 36.82 38.63 38.94 39.81 38.75 40.47
38.64 37.63 37.44 37.43 36.91 36.18 35.98 35.36 35.04 34.46 34.72 34.62 34.60 34.34 34.01 33.92 33.51 32.74 32.50 33.24 32.62 32.68 33.18 33.78 34.49 37.82 35.91 35.89 35.73 36.15 36.77 37.16 36.03 34.33 35.75 36.12 33.97 35.61 37.73 36.88 38.79 40.87 39.52
37.62 37.06 36.67 36.37 35.99 35.17 34.37 34.04 33.97 33.59 33.50 33.79 33.81 33.28 33.63 34.06 33.63 33.49 33.28 33.38 33.48 34.21 34.98 34.83 35.61 35.89 34.97 35.68 36.33 36.05 36.48 37.74 37.27 36.05 35.65 37.77 37.63 35.87 36.77 37.37 36.83 37.11 39.57
36.92 35.98 35.66 35.36 34.87 33.88 33.53 33.48 33.50 33.30 32.83 32.89 33.08 33.41 33.90 33.81 33.73 34.34 34.36 34.07 34.46 35.68 36.42 36.86 36.48 35.96 36.34 36.78 37.30 38.13 38.16 37.19 37.00 36.82 37.38 36.85 37.45 37.75 36.36 36.38 36.60 36.93 36.95
36.16 35.80 35.44 35.15 34.10 33.54 33.34 33.40 33.35 33.01 33.25 32.88 32.67 32.97 32.87 33.37 35.43 33.82 34.97 36.12 37.62 38.06 39.11 38.90 39.02 41.91 45.28 44.42 42.15 40.87 39.72 38.59 37.86 37.83 37.74 37.80 37.94 38.43 38.05 39.63 38.69 39.01 38.63
35.37 35.66 35.63 34.54 33.78 33.19 33.02 32.96 32.34 32.32 32.06 32.10 31.86 31.48 30.77 34.04 40.17 42.40 40.93 38.69 39.51 39.47 39.77 40.90 41.58 43.29 42.86 45.19 46.01 46.38 44.42 41.77 40.26 39.98 38.49 36.72 37.86 39.67 39.23 38.43 39.04 38.23 36.46
34.90 35.10 34.76 33.79 33.45 33.38 33.17 32.50 31.98 31.36 30.68 30.27 29.73 29.79 30.42 32.09 40.54 42.26 42.96 40.14 39.89 40.58 40.01 39.02 39.63 41.07 42.12 40.39 42.76 44.20 43.80 44.67 44.38 40.81 39.08 39.58 39.17 39.91 39.75 39.48 39.39 38.74 38.51
34.61 34.48 34.08 33.18 33.05 33.06 32.30 31.77 30.91 30.37 29.89 28.96 30.07 31.08 31.15 33.16 40.80 42.30 43.20 40.55 39.93 39.82 39.59 40.16 39.09 38.90 39.92 40.57 39.14 38.76 39.14 39.65 40.44 40.79 40.28 39.69 39.65 40.22 40.32 40.02 39.48 40.25 41.20
34.21 33.76 33.87 33.15 32.62 32.36 31.66 31.09 30.63 29.36 29.15 30.02 31.15 30.87 30.56 32.05 39.92 42.27 41.18 39.33 39.57 39.26 40.40 39.42 39.81 38.30 42.03 44.02 39.78 38.67 37.91 37.94 42.21 44.34 44.65 45.21 45.94 46.37 45.54 43.22 40.55 39.51 37.82
34.50 34.56 33.99 33.06 32.46 31.86 31.47 30.67 29.47 29.42 30.37 31.46 31.09 31.74 34.86 35.04 39.38 41.10 40.88 39.68 39.01 38.42 38.94 39.30 42.18 41.44 43.70 43.50 39.38 38.45 37.56 37.91 38.92 38.69 39.27 41.00 42.87 42.31 45.06 43.97 41.18 39.01 39.14
35.19 34.63 33.78 33.20 32.32 31.98 30.89 29.00 29.35 29.35 29.50 28.90 31.03 32.74 33.84 35.78 37.04 41.21 42.12 39.72 39.22 38.62 39.04 39.19 38.94 42.02 42.92 43.32 43.36 38.94 37.31 39.12 40.75 40.06 39.47 39.59 39.92 41.53 42.83 43.50 42.30 40.47 38.09
34.86 33.84 32.81 32.21 32.94 33.85 29.40 29.14 29.20 28.73 28.77 29.84 31.60 33.86 36.18 36.67 38.99 40.09 41.69 42.43 42.07 39.15 38.71 39.42 38.21 41.27 42.30 42.44 40.54 40.39 41.25 42.02 39.14 40.90 39.57 39.20 39.25 38.58 38.73 40.52 41.98 42.86 44.73
33.25 32.14 31.65 31.94 31.96 31.45 28.99 28.73 28.65 29.88 30.11 32.15 33.57 34.40 33.51 35.70 36.83 39.90 41.25 41.90 42.53 39.22 39.14 39.53 40.92 40.98 40.35 37.75 38.00 39.08 39.69 36.26 37.85 37.09 34.83 34.22 34.94 36.42 36.85 37.81 40.18 43.75 44.10
32.15 31.44 31.40 30.93 33.04 30.43 30.09 30.01 29.59 30.28 31.27 33.75 35.01 33.29 33.90 34.77 35.58 36.86 37.66 39.50 41.15 38.22 39.35 36.80 38.93 37.72 37.07 36.71 34.88 34.60 34.28 35.65 36.10 34.88 34.25 37.49 38.81 39.28 37.63 36.90 38.11 40.44 41.21
31.71 31.45 31.12 31.74 30.15 29.30 29.78 29.88 31.81 32.63 34.84 35.24 35.10 35.65 34.07 34.11 35.33 39.22 39.26 38.21 37.28 38.07 38.19 35.96 31.29 30.17 29.76 32.35 32.59 32.38 33.09 33.80 33.60 33.70 33.78 34.52 36.10 39.17 40.04 40.30 39.43 39.87 38.53
31.73 31.28 31.13 31.22 29.50 29.37 29.48 30.48 35.97 37.53 38.37 38.67 38.37 37.45 35.94 38.34 39.51 39.85 40.17 39.27 39.46 38.89 34.89 31.14 31.22 30.77 29.38 29.86 31.78 31.32 31.74 32.84 33.63 34.06 33.63 34.53 36.44 38.15 38.86 40.84 40.88 39.25 38.08
30.98 31.72 31.62 31.31 29.33 29.24 30.26 30.13 30.43 33.69 37.65 36.79 37.50 38.01 38.05 38.22 38.71 39.64 38.65 38.38 37.48 36.57 32.37 31.47 31.35 31.58 30.92 30.21 31.00 31.75 30.72 32.07 33.17 33.45 33.79 35.32 36.89 38.10 39.08 40.28 40.63 39.66 38.76
31.79 36.12 30.94 29.56 29.00 29.11 29.17 29.94 31.52 31.60 29.67 30.47 34.84 35.81 37.00 37.65 38.34 38.48 37.55 36.17 31.61 33.11 32.59 32.03 31.91 32.53 32.46 30.86 30.04 31.40 31.59 32.09 32.24 32.72 34.16 35.33 35.31 36.55 38.19 38.59 39.04 38.86 39.30
31.54 31.45 30.67 29.30 28.73 31.21 29.62 30.56 30.99 30.61 30.05 30.25 30.88 33.39 34.78 36.47 38.40 36.64 36.22 32.21 31.66 31.61 32.22 32.38 32.80 32.86 32.92 33.09 32.42 32.58 32.37 31.99 32.59 33.41 34.16 34.02 35.99 37.81 39.15 40.25 39.59 39.48 37.76
31.44 34.77 34.21 29.47 28.72 29.15 29.78 32.90 30.26 30.49 30.17 29.76 29.89 30.43 31.90 33.96 32.46 31.29 32.14 32.18 32.31 32.09 32.35 32.19 32.84 32.96 33.15 32.92 33.09 32.72 32.38 31.88 32.21 33.02 34.07 34.99 36.67 38.15 39.15 40.53 40.89 41.11 38.19
29.96 29.70 33.67 28.48 31.31 29.32 30.76 31.08 30.50 30.70 29.44 29.78 30.35 31.98 36.02 33.17 30.82 31.18 31.80 32.31 32.27 32.39 32.25 32.42 32.61 32.78 32.54 32.91 32.93 32.86 32.45 31.92 32.11 33.20 34.10 35.32 35.78 36.16 39.84 41.43 42.07 41.03 39.43
29.12 29.21 29.27 28.72 30.83 30.23 31.76 30.91 30.54 30.16 29.98 30.17 30.76 31.77 34.63 31.69 31.58 31.53 32.06 32.51 32.85 32.87 33.52 33.03 32.69 32.96 32.65 32.76 32.74 32.77 32.32 31.98 32.58 33.39 34.35 34.17 34.44 36.94 39.63 40.52 42.14 42.85 40.59
29.01 28.57 28.29 28.53 30.50 31.99 30.03 30.58 30.04 29.98 30.53 30.83 30.92 30.98 31.24 31.38 31.40 31.61 31.84 32.06 32.75 32.91 33.47 33.35 32.94 32.96 33.85 33.79 33.97 33.75 32.83 32.31 31.93 33.95 33.44 32.49 34.10 37.11 38.99 39.79 42.02 42.19 41.86
28.98 27.93 27.67 27.74 29.23 30.14 30.13 30.46 30.03 30.66 30.78 30.90 30.87 30.97 31.29 30.98 31.31 31.55 32.01 32.56 32.75 33.02 33.35 33.23 33.20 33.16 33.41 34.14 33.77 34.13 34.46 34.61 34.63 34.47 32.61 33.35 34.52 37.51 38.96 39.55 41.57 42.32 42.45
28.75 27.83 27.32 26.92 29.07 29.89 30.14 30.29 30.11 30.09 31.24 30.50 30.26 31.18 30.75 31.09 31.12 31.49 32.13 32.58 32.62 32.48 32.70 32.99 33.21 33.27 34.02 34.36 34.40 33.74 34.55 34.94 34.20 34.15 32.77 34.40 35.40 38.33 39.21 39.80 41.51 41.80 42.75
28.18 27.66 27.33 27.41 29.33 30.26 30.17 29.93 30.08 31.19 30.47 30.12 31.07 30.59 30.65 30.66 30.88 31.33 31.82 32.19 32.10 32.27 32.41 32.81 32.99 33.09 34.40 35.08 35.10 34.90 34.66 34.86 34.27 35.36 33.75 35.28 36.16 38.90 39.51 40.51 41.30 41.68 42.51